| time (UTC) | temp F | wind direction | speed MPH | gust MPH | rain 1hr in | rain 24hr in | rain mn in | humidity % | barometer mb |
| 20260901033642 | 60 | 292 | 1.0 | 3.0 | 0.00 | 0.04 | 0.04 | 85 | 1020.4 |
| 20260901032635 | 60 | 292 | 3.0 | 7.0 | 0.00 | 0.04 | 0.04 | 85 | 1020.5 |
| 20260901031624 | 60 | 306 | 2.0 | 5.0 | 0.00 | 0.04 | 0.04 | 84 | 1020.7 |
| 20260901030614 | 60 | 263 | 3.0 | 6.0 | 0.00 | 0.04 | 0.04 | 84 | 1020.6 |
| 20260901025617 | 60 | 258 | 2.0 | 3.0 | 0.00 | 0.04 | 0.04 | 84 | 1020.8 |
| 20260901024631 | 60 | 258 | 2.0 | 3.0 | 0.00 | 0.04 | 0.04 | 83 | 1020.6 |
| 20260901023620 | 60 | 259 | 2.0 | 6.0 | 0.00 | 0.04 | 0.04 | 82 | 1020.3 |
| 20260901022629 | 61 | 252 | 3.0 | 8.0 | 0.00 | 0.04 | 0.04 | 79 | 1020.1 |
| 20260901021619 | 63 | 83 | 2.0 | 3.0 | 0.00 | 0.04 | 0.04 | 75 | 1020.1 |
| 20260901020614 | 63 | 71 | 1.0 | 4.0 | 0.00 | 0.04 | 0.04 | 74 | 1020.1 |
| 20260901015614 | 63 | 73 | 1.0 | 4.0 | 0.00 | 0.04 | 0.04 | 73 | 1020.0 |
| 20260901014624 | 63 | 65 | 2.0 | 4.0 | 0.00 | 0.04 | 0.04 | 73 | 1020.2 |
| 20260901013613 | 63 | 65 | 1.0 | 4.0 | 0.01 | 0.04 | 0.04 | 73 | 1020.3 |
| 20260901012648 | 63 | 65 | 3.0 | 6.0 | 0.01 | 0.04 | 0.04 | 71 | 1020.1 |
| 20260901011617 | 63 | 115 | 3.0 | 8.0 | 0.01 | 0.04 | 0.04 | 70 | 1020.5 |
| 20260901010627 | 64 | 90 | 3.0 | 10.0 | 0.02 | 0.04 | 0.04 | 69 | 1020.6 |
| 20260901005630 | 65 | 38 | 3.0 | 5.0 | 0.04 | 0.04 | 0.04 | 66 | 1020.7 |
| 20260901004626 | 65 | 5 | 5.0 | 8.0 | 0.03 | 0.03 | 0.03 | 70 | 1021.0 |
| 20260901003617 | 65 | 19 | 5.0 | 10.0 | 0.03 | 0.03 | 0.03 | 65 | 1021.0 |
| 20260901002629 | 66 | 142 | 5.0 | 9.0 | 0.03 | 0.03 | 0.03 | 63 | 1020.9 |
| 20260901001624 | 67 | 227 | 5.0 | 15.0 | 0.03 | 0.03 | 0.03 | 60 | 1020.7 |
| 20260901000636 | 68 | 185 | 17.0 | 27.0 | 0.02 | 0.02 | 0.02 | 57 | 1020.4 |
| 20260831235618 | 70 | 162 | 12.0 | 24.0 | 0.00 | 0.00 | 0.00 | 51 | 1020.1 |
| 20260831234630 | 73 | 211 | 6.0 | 28.0 | 0.00 | 0.00 | 0.00 | 45 | 1018.9 |
| 20260831233621 | 75 | 128 | 12.0 | 18.0 | 0.00 | 0.00 | 0.00 | 43 | 1017.7 |
| 20260831232615 | 76 | 30 | 11.0 | 16.0 | 0.00 | 0.00 | 0.00 | 40 | 1017.0 |
| 20260831231647 | 76 | 20 | 10.0 | 16.0 | 0.00 | 0.00 | 0.00 | 39 | 1016.8 |
| 20260831230616 | 77 | 46 | 6.0 | 10.0 | 0.00 | 0.00 | 0.00 | 40 | 1017.0 |
| 20260831225641 | 77 | 360 | 4.0 | 12.0 | 0.00 | 0.00 | 0.00 | 38 | 1017.0 |
| 20260831224614 | 77 | 70 | 7.0 | 12.0 | 0.00 | 0.00 | 0.00 | 37 | 1016.9 |
| 20260831223646 | 78 | 66 | 6.0 | 16.0 | 0.00 | 0.00 | 0.00 | 38 | 1016.6 |
| 20260831222614 | 79 | 13 | 9.0 | 15.0 | 0.00 | 0.00 | 0.00 | 37 | 1016.3 |
| 20260831221623 | 80 | 57 | 5.0 | 12.0 | 0.00 | 0.00 | 0.00 | 35 | 1016.0 |
| 20260831220639 | 80 | 76 | 5.0 | 10.0 | 0.00 | 0.00 | 0.00 | 34 | 1016.1 |
| 20260831215619 | 80 | 100 | 7.0 | 11.0 | 0.00 | 0.00 | 0.00 | 35 | 1016.1 |
| 20260831214629 | 80 | 95 | 8.0 | 12.0 | 0.00 | 0.00 | 0.00 | 36 | 1016.2 |
| 20260831213619 | 79 | 60 | 4.0 | 12.0 | 0.00 | 0.00 | 0.00 | 36 | 1016.3 |
| 20260831212615 | 79 | 96 | 7.0 | 13.0 | 0.00 | 0.00 | 0.00 | 35 | 1016.6 |
| 20260831211625 | 78 | 98 | 4.0 | 11.0 | 0.00 | 0.00 | 0.00 | 37 | 1016.8 |
| 20260831210616 | 77 | 104 | 5.0 | 11.0 | 0.00 | 0.00 | 0.00 | 36 | 1017.0 |
| 20260831205619 | 78 | 11 | 11.0 | 19.0 | 0.00 | 0.00 | 0.00 | 37 | 1017.2 |
| 20260831204613 | 80 | 5 | 14.0 | 21.0 | 0.00 | 0.00 | 0.00 | 37 | 1017.1 |
| 20260831203624 | 81 | 299 | 4.0 | 7.0 | 0.00 | 0.00 | 0.00 | 39 | 1016.9 |
| 20260831202614 | 81 | 277 | 6.0 | 8.0 | 0.00 | 0.00 | 0.00 | 36 | 1016.7 |
| 20260831201625 | 81 | 280 | 2.0 | 5.0 | 0.00 | 0.00 | 0.00 | 35 | 1017.0 |
| 20260831200620 | 81 | 277 | 3.0 | 6.0 | 0.00 | 0.00 | 0.00 | 35 | 1017.1 |
| 20260831195645 | 81 | 261 | 3.0 | 7.0 | 0.00 | 0.00 | 0.00 | 41 | 1017.3 |
| 20260831194636 | 81 | 268 | 4.0 | 7.0 | 0.00 | 0.00 | 0.00 | 44 | 1017.5 |
| 20260831193626 | 80 | 240 | 4.0 | 7.0 | 0.00 | 0.00 | 0.00 | 45 | 1017.6 |
| 20260831192621 | 78 | 278 | 2.0 | 6.0 | 0.00 | 0.00 | 0.00 | 47 | 1017.8 |
| 20260831191612 | 76 | 232 | 4.0 | 5.0 | 0.00 | 0.00 | 0.00 | 49 | 1018.0 |
| 20260831190623 | 75 | 238 | 4.0 | 9.0 | 0.00 | 0.00 | 0.00 | 49 | 1018.2 |
| 20260831185626 | 74 | 292 | 6.0 | 8.0 | 0.00 | 0.00 | 0.00 | 49 | 1018.3 |
| 20260831184641 | 73 | 260 | 3.0 | 6.0 | 0.00 | 0.00 | 0.00 | 52 | 1018.4 |
| 20260831183632 | 72 | 250 | 1.0 | 3.0 | 0.00 | 0.00 | 0.00 | 51 | 1018.8 |
| 20260831182623 | 71 | 249 | 1.0 | 4.0 | 0.00 | 0.00 | 0.00 | 52 | 1019.1 |
| 20260831181613 | 71 | 244 | 2.0 | 4.0 | 0.00 | 0.00 | 0.00 | 52 | 1019.3 |
| 20260831180652 | 70 | 249 | 2.0 | 6.0 | 0.00 | 0.00 | 0.00 | 52 | 1019.4 |
| 20260831175638 | 70 | 256 | 3.0 | 4.0 | 0.00 | 0.00 | 0.00 | 52 | 1019.5 |
| 20260831174628 | 69 | 261 | 1.0 | 4.0 | 0.00 | 0.00 | 0.00 | 53 | 1019.7 |
| 20260831173618 | 69 | 275 | 3.0 | 6.0 | 0.00 | 0.00 | 0.00 | 54 | 1019.9 |
| 20260831172650 | 68 | 271 | 2.0 | 6.0 | 0.00 | 0.00 | 0.00 | 54 | 1019.9 |
| 20260831171641 | 67 | 251 | 3.0 | 4.0 | 0.00 | 0.00 | 0.00 | 53 | 1019.9 |
| 20260831170615 | 66 | 243 | 1.0 | 3.0 | 0.00 | 0.00 | 0.00 | 56 | 1020.0 |
| 20260831165618 | 65 | 243 | 1.0 | 5.0 | 0.00 | 0.00 | 0.00 | 57 | 1020.1 |
| 20260831164629 | 64 | 259 | 1.0 | 6.0 | 0.00 | 0.00 | 0.00 | 61 | 1020.2 |
| 20260831163620 | 63 | 270 | 2.0 | 6.0 | 0.00 | 0.00 | 0.00 | 62 | 1020.2 |
| 20260831162615 | 62 | 270 | 4.0 | 7.0 | 0.00 | 0.00 | 0.00 | 63 | 1020.1 |
| 20260831161626 | 62 | 282 | 2.0 | 5.0 | 0.00 | 0.00 | 0.00 | 66 | 1020.1 |
| 20260831160617 | 61 | 340 | 2.0 | 6.0 | 0.00 | 0.00 | 0.00 | 66 | 1020.2 |
| 20260831155620 | 60 | 263 | 1.0 | 3.0 | 0.00 | 0.00 | 0.00 | 70 | 1020.4 |
| 20260831154636 | 59 | 257 | 0.0 | 0.0 | 0.00 | 0.00 | 0.00 | 72 | 1020.5 |
| 20260831153646 | 58 | 256 | 0.0 | 0.0 | 0.00 | 0.00 | 0.00 | 74 | 1020.6 |
| 20260831152635 | 57 | 256 | 0.0 | 0.0 | 0.00 | 0.00 | 0.00 | 77 | 1020.7 |
| 20260831151645 | 56 | 255 | 0.0 | 0.0 | 0.00 | 0.00 | 0.00 | 79 | 1020.9 |
| 20260831150618 | 55 | 252 | 0.0 | 0.0 | 0.00 | 0.00 | 0.00 | 81 | 1020.8 |
| 20260831145619 | 54 | 240 | 0.0 | 0.0 | 0.00 | 0.00 | 0.00 | 82 | 1020.9 |
| 20260831144630 | 53 | 238 | 0.0 | 0.0 | 0.00 | 0.00 | 0.00 | 86 | 1021.0 |
| 20260831143620 | 52 | 237 | 0.0 | 4.0 | 0.00 | 0.00 | 0.00 | 87 | 1020.9 |
| 20260831142613 | 51 | 214 | 1.0 | 2.0 | 0.00 | 0.00 | 0.00 | 89 | 1021.1 |
| 20260831141644 | 50 | 211 | 0.0 | 0.0 | 0.00 | 0.00 | 0.00 | 91 | 1021.3 |
| 20260831140614 | 49 | 211 | 0.0 | 1.0 | 0.00 | 0.00 | 0.00 | 90 | 1021.0 |
| 20260831135617 | 48 | 211 | 0.0 | 1.0 | 0.00 | 0.00 | 0.00 | 91 | 1021.0 |
| 20260831134612 | 47 | 211 | 0.0 | 0.0 | 0.00 | 0.00 | 0.00 | 90 | 1021.1 |
| 20260831133623 | 47 | 211 | 0.0 | 2.0 | 0.00 | 0.00 | 0.00 | 90 | 1021.0 |
| 20260831132614 | 47 | 211 | 0.0 | 2.0 | 0.00 | 0.00 | 0.00 | 90 | 1020.9 |
| 20260831131625 | 47 | 211 | 0.0 | 2.0 | 0.00 | 0.00 | 0.00 | 90 | 1020.9 |
| 20260831130620 | 47 | 211 | 0.0 | 2.0 | 0.00 | 0.00 | 0.00 | 90 | 1020.8 |
| 20260831125623 | 47 | 211 | 1.0 | 3.0 | 0.00 | 0.01 | 0.00 | 90 | 1020.7 |
| 20260831124614 | 48 | 211 | 1.0 | 2.0 | 0.00 | 0.01 | 0.00 | 89 | 1020.7 |
| 20260831123625 | 48 | 211 | 1.0 | 2.0 | 0.00 | 0.01 | 0.00 | 89 | 1020.6 |
| 20260831122621 | 48 | 211 | 1.0 | 1.0 | 0.00 | 0.01 | 0.00 | 89 | 1020.6 |
| 20260831121631 | 48 | 211 | 2.0 | 3.0 | 0.00 | 0.01 | 0.00 | 89 | 1020.6 |
| 20260831120623 | 48 | 211 | 1.0 | 2.0 | 0.00 | 0.01 | 0.00 | 89 | 1020.6 |
| 20260831115626 | 49 | 210 | 3.0 | 4.0 | 0.00 | 0.01 | 0.00 | 88 | 1020.6 |
| 20260831114637 | 49 | 210 | 1.0 | 2.0 | 0.00 | 0.01 | 0.00 | 88 | 1020.5 |
| 20260831113631 | 49 | 210 | 0.0 | 1.0 | 0.00 | 0.01 | 0.00 | 88 | 1020.7 |
| 20260831112622 | 49 | 210 | 0.0 | 1.0 | 0.00 | 0.01 | 0.00 | 88 | 1020.6 |
| 20260831111613 | 49 | 210 | 1.0 | 2.0 | 0.00 | 0.01 | 0.00 | 88 | 1020.5 |
| 20260831110624 | 49 | 210 | 0.0 | 2.0 | 0.00 | 0.01 | 0.00 | 87 | 1020.4 |
| 20260831105631 | 50 | 210 | 0.0 | 1.0 | 0.00 | 0.01 | 0.00 | 87 | 1020.4 |
| 20260831104622 | 50 | 210 | 1.0 | 3.0 | 0.00 | 0.01 | 0.00 | 87 | 1020.4 |
| 20260831103634 | 51 | 210 | 0.0 | 2.0 | 0.00 | 0.01 | 0.00 | 87 | 1020.4 |
| 20260831102644 | 51 | 210 | 0.0 | 0.0 | 0.00 | 0.01 | 0.00 | 86 | 1020.4 |
| 20260831101617 | 51 | 210 | 0.0 | 0.0 | 0.00 | 0.01 | 0.00 | 86 | 1020.4 |
| 20260831100625 | 50 | 210 | 1.0 | 2.0 | 0.00 | 0.01 | 0.00 | 87 | 1020.2 |
| 20260831095648 | 50 | 209 | 0.0 | 0.0 | 0.00 | 0.08 | 0.00 | 86 | 1020.2 |
| 20260831094616 | 50 | 209 | 0.0 | 0.0 | 0.00 | 0.08 | 0.00 | 86 | 1020.2 |
| 20260831093626 | 50 | 209 | 0.0 | 1.0 | 0.00 | 0.08 | 0.00 | 86 | 1020.2 |
| 20260831092620 | 50 | 209 | 0.0 | 2.0 | 0.00 | 0.08 | 0.00 | 85 | 1020.2 |
| 20260831091629 | 50 | 209 | 0.0 | 0.0 | 0.00 | 0.08 | 0.00 | 85 | 1020.1 |
| 20260831090619 | 50 | 209 | 0.0 | 2.0 | 0.00 | 0.08 | 0.00 | 85 | 1020.0 |
| 20260831085620 | 50 | 209 | 0.0 | 3.0 | 0.00 | 0.08 | 0.00 | 83 | 1020.0 |
| 20260831084614 | 51 | 208 | 2.0 | 4.0 | 0.00 | 0.08 | 0.00 | 82 | 1020.0 |
| 20260831083644 | 52 | 206 | 1.0 | 3.0 | 0.00 | 0.08 | 0.00 | 82 | 1020.1 |
| 20260831082614 | 52 | 206 | 2.0 | 3.0 | 0.00 | 0.08 | 0.00 | 82 | 1019.9 |
| 20260831081624 | 53 | 206 | 0.0 | 2.0 | 0.00 | 0.08 | 0.00 | 81 | 1019.8 |
| 20260831080647 | 53 | 206 | 1.0 | 2.0 | 0.00 | 0.08 | 0.00 | 80 | 1019.8 |
| 20260831075629 | 53 | 206 | 0.0 | 2.0 | 0.00 | 0.08 | 0.00 | 80 | 1019.9 |
| 20260831074618 | 53 | 205 | 0.0 | 1.0 | 0.00 | 0.08 | 0.00 | 80 | 1019.9 |
| 20260831073628 | 53 | 205 | 2.0 | 3.0 | 0.00 | 0.08 | 0.00 | 80 | 1019.9 |
| 20260831072621 | 53 | 206 | 0.0 | 2.0 | 0.00 | 0.08 | 0.00 | 78 | 1019.9 |
| 20260831071631 | 54 | 206 | 1.0 | 2.0 | 0.00 | 0.08 | 0.00 | 78 | 1020.0 |
| 20260831070621 | 54 | 205 | 0.0 | 1.0 | 0.00 | 0.08 | 0.00 | 79 | 1019.9 |
| 20260831065643 | 54 | 205 | 1.0 | 2.0 | 0.00 | 0.08 | 0.00 | 78 | 1019.8 |
| 20260831064616 | 54 | 205 | 1.0 | 2.0 | 0.00 | 0.08 | 0.00 | 78 | 1019.7 |
| 20260831063627 | 54 | 205 | 2.0 | 2.0 | 0.00 | 0.08 | 0.00 | 78 | 1019.7 |
| 20260831062637 | 54 | 205 | 1.0 | 3.0 | 0.00 | 0.08 | 0.00 | 78 | 1019.7 |
| 20260831061626 | 55 | 205 | 0.0 | 3.0 | 0.00 | 0.08 | 0.00 | 77 | 1019.6 |
| 20260831060622 | 56 | 205 | 2.0 | 4.0 | 0.00 | 0.08 | 0.00 | 77 | 1019.6 |
| 20260831055629 | 56 | 202 | 2.0 | 3.0 | 0.00 | 0.08 | 0.08 | 78 | 1019.6 |
| 20260831054619 | 56 | 201 | 0.0 | 2.0 | 0.00 | 0.08 | 0.08 | 76 | 1019.5 |
| 20260831053630 | 57 | 201 | 0.0 | 3.0 | 0.00 | 0.08 | 0.08 | 76 | 1019.5 |
| 20260831052620 | 57 | 201 | 1.0 | 3.0 | 0.00 | 0.08 | 0.08 | 74 | 1019.5 |
| 20260831051615 | 58 | 186 | 0.0 | 3.0 | 0.00 | 0.08 | 0.08 | 72 | 1019.4 |
| 20260831050626 | 59 | 186 | 0.0 | 1.0 | 0.00 | 0.08 | 0.08 | 70 | 1019.3 |
| 20260831045628 | 60 | 186 | 1.0 | 3.0 | 0.00 | 0.08 | 0.08 | 68 | 1019.1 |
| 20260831044618 | 60 | 186 | 1.0 | 2.0 | 0.00 | 0.08 | 0.08 | 66 | 1019.1 |
| 20260831043612 | 60 | 186 | 2.0 | 3.0 | 0.00 | 0.08 | 0.08 | 66 | 1019.1 |
| 20260831042622 | 61 | 186 | 1.0 | 3.0 | 0.00 | 0.08 | 0.08 | 66 | 1019.1 |
| 20260831041631 | 61 | 186 | 1.0 | 4.0 | 0.00 | 0.08 | 0.08 | 66 | 1019.1 |
| 20260831040627 | 61 | 252 | 1.0 | 4.0 | 0.00 | 0.08 | 0.08 | 66 | 1019.1 |
| 20260831035612 | 61 | 254 | 1.0 | 3.0 | 0.00 | 0.08 | 0.08 | 67 | 1018.9 |
| 20260831034622 | 62 | 254 | 0.0 | 2.0 | 0.00 | 0.08 | 0.08 | 66 | 1018.9 |